Location: Allos
(44.2333°N, 6.6333°E)
Time: 00:39:47
(UTC+00:00)

DX 1 - Pass Details

Date: 18 May 2021
Orbit: 618 x 631 km, 98.5° (Epoch: 24 June)

Event Time Altitude Azimuth Distance (km) Brightness Sun altitude
Rises 19:43:03 0° 4° (N) 2,907 ? -7.7°
Reaches altitude 10° 19:45:24 10° 355° (N) 1,995 ? -8.1°
Maximum altitude 19:49:16 33° 292° (WNW) 1,055 ? -8.6°
Drops below altitude 10° 19:53:06 10° 229° (SW) 1,980 ? -9.1°
Sets 19:55:26 0° 219° (SW) 2,881 ? -9.5°
